Aérodrome :
LOGIN :

S'inscrire | Disclaimer

   EN    FR    IT 

 










Légende :    VFR   VFR Marginal   IFR   IFR Intensif   IFR Très Intensif
Visi : 
Plafond : 
>= 8 km
>= 3000ft
5 à 8 km
1000 à 3000 ft
1500m à 5 km
500 à 1000 ft
800 à 1500m
200 à 500 ft
< 800m
< 200 ft
Symboles :   Orages  Brouillard  Fortes neiges  Fortes précipitations  Vent > 20 kt
SIGMETs :   Divers  Orages  Givrage  Turbulence  Onde Orograph.  Cendres Volcan.







- Altitude de l'aérodrome : 270 ft
- Code IATA : OXF
- Voir les cartes d'approche


EGTK - Oxford (Kidlington)

DERNIER METAR :
  • 162120Z 17010KT 9000 SCT009 SCT012 OVC024 10/09 Q1020

METARs EXPIRÉS :
  • 162050Z 17009KT 9000 FEW008 BKN024 10/09 Q1020
  • 162020Z 17011KT 9000 OVC024 10/09 Q1020
  • 161950Z 17010KT 9000 OVC021 11/09 Q1020
  • 161920Z 16011KT 9000 BKN020 OVC024 11/09 Q1020
  • 161850Z 17010KT 9999 SCT018 OVC021 11/09 Q1020

TAF AMD TAF EGTK
Valide du 16 à 21h jusqu'au 16 à 23h UTC


162057Z 1621/1623 17007KT 9999 BKN020
BECMG 1621/1623 6000 BKN005
TEMPO 1621/1623 3000 -DZ BR BKN003
Pas de NOTAMs connus pour ce terrain.



MET'MAP, la Météo Aéronautique d'un coup d'oeil ! - Copyright ORBIFLY Décembre 2007 - Disclaimer

ORBIFLY MET'MAP TEAM :

Programmation & Développement : Alexandra Zaïnal
Conception & Développement : Baudouin d'Aumeries
Co-Programmation & Développement : Marc-Olivier Méhu
Soutien technique & logistique : Manuel Goepfert

Contact : metmap@orbifly.com




SOURCES & CREDITS :

   NOAA